[[{"header":{"parameterUnit":"m.s-1","parameterCategory":2,"la1":30.2991,"la2":30.254,"lo1":-89.0895,"lo2":-89.0444,"dy":0.0017,"dx":0.0017,"nx":28,"ny":28,"refTime":"2025-11-18T09:00:00:Z","depth":"0","parameterNumber":2,"parameterNumberName":"U-component_of_CURRENTS"},"data":[0,0,0,0,0,0,0,0,0,0,0,0,0,0,0,0,0,0,0,0,0,0,0,0,0,0,0,0,0,0,0,0,0,0,0,0,0,0,0,0,0,0,0,0,0,0,0,0,0,0,0,0,0,0,0,0,0,0,-0.2897,-0.2897,0,-0.2981,-0.2982,-0.2983,-0.3008,-0.3007,-0.3006,-0.3005,-0.291,-0.2908,-0.2906,0,0,0,0,0,0,0,0,0,0,0,0,0,-0.2799,-0.28,-0.2896,-0.2897,-0.2898,-0.2981,-0.2982,-0.2984,-0.3008,-0.3007,-0.3006,-0.3005,-0.291,-0.2908,-0.2906,0,0,0,0,0,0,0,0,0,0,0,0,0,-0.2862,-0.2801,-0.2896,-0.2917,-0.2919,-0.298,-0.2982,-0.2984,-0.3008,-0.3007,-0.3006,-0.3005,-0.2911,-0.2908,-0.2906,-0.2915,0,0,-0.2898,-0.2897,0,0,0,0,0,0,0,0,-0.2858,-0.2866,-0.2913,-0.2915,-0.2918,-0.2979,-0.2913,-0.2951,-0.3009,-0.2979,-0.3005,-0.3004,-0.2914,-0.2911,-0.2939,-0.2911,-0.2906,-0.2898,-0.2896,-0.2895,-0.2894,0,0,0,0,0,0,0,-0.2854,-0.2863,-0.2934,-0.2914,-0.2917,-0.2936,-0.2943,-0.2921,-0.2953,-0.2981,-0.2982,-0.2985,-0.2915,-0.2942,-0.2936,-0.2905,-0.2898,-0.2895,-0.2894,-0.2893,-0.2882,-0.2883,0,0,0,0,0,0,-0.2834,-0.2859,-0.2931,-0.2936,-0.288,-0.2938,-0.2947,-0.2964,-0.2957,-0.2955,-0.2986,-0.2986,-0.2947,-0.2939,-0.2932,-0.296,-0.2895,-0.2892,-0.2891,-0.288,-0.2882,-0.2883,0,0,0,0,0,0,-0.2832,-0.2841,-0.2928,-0.2895,-0.2907,-0.294,-0.296,-0.2966,-0.2995,-0.2962,-0.2957,-0.3008,-0.2945,-0.2936,-0.2925,-0.2954,-0.2891,-0.2889,-0.2879,-0.2881,-0.2883,-0.3001,0,0,0,0,0,0,-0.2829,-0.284,-0.2853,-0.2894,-0.2908,-0.2981,-0.2961,-0.2969,-0.2996,-0.2997,-0.2978,-0.2968,-0.2944,-0.293,-0.2923,-0.295,-0.2887,-0.2877,-0.288,-0.2882,-0.2996,-0.3007,-0.3017,0,0,0,0,0,-0.2826,-0.2858,-0.2854,-0.2862,-0.2923,-0.2983,-0.2993,-0.3014,-0.2999,-0.3032,-0.3009,-0.2969,-0.294,-0.2929,-0.2921,-0.2947,-0.2876,-0.2879,-0.2882,-0.2991,-0.3005,-0.3017,0,0,0,0,0,0,-0.2822,-0.2864,-0.286,-0.2902,-0.294,-0.2985,-0.3009,-0.3021,-0.3037,-0.3019,-0.2987,-0.2977,-0.2977,-0.2945,-0.2934,-0.2951,-0.2901,-0.2902,-0.2987,-0.2999,-0.3009,-0.298,-0.2885,0,0,0,0,0,-0.2824,-0.2853,-0.2896,-0.2923,-0.2943,-0.2975,-0.2999,-0.3014,-0.3028,-0.3036,-0.3023,-0.2999,-0.2986,-0.2978,-0.2959,-0.2969,-0.2892,-0.2979,-0.299,-0.2999,-0.2969,-0.288,-0.2878,-0.2893,-0.2893,-0.2893,0,0,-0.2819,-0.2849,-0.286,-0.2923,-0.2947,-0.2993,-0.2989,-0.3028,-0.3058,-0.3016,-0.3045,-0.303,-0.2995,-0.3012,-0.3009,-0.2988,-0.2964,-0.3003,-0.3011,-0.2975,-0.2882,-0.288,-0.2879,-0.2895,-0.2895,-0.2894,0,0,-0.2832,-0.2859,-0.289,-0.2932,-0.2976,-0.3005,-0.3017,-0.3068,-0.3085,-0.3113,-0.3087,-0.3096,-0.3079,-0.308,-0.3069,-0.3122,-0.3018,-0.3112,-0.3146,-0.3062,-0.3059,-0.3055,-0.2992,-0.2981,-0.3123,-0.3123,-0.3123,0,-0.2824,-0.2868,-0.2908,-0.2956,-0.2979,-0.3011,-0.3046,-0.3086,-0.3126,-0.3119,-0.3126,-0.3106,-0.3113,-0.3108,-0.315,-0.3147,-0.3066,-0.3108,-0.3073,-0.3068,-0.3062,-0.2997,-0.2983,-0.3129,-0.3129,-0.3128,-0.3127,0,-0.2861,-0.2901,-0.2924,-0.2987,-0.3029,-0.3065,-0.3115,-0.3148,-0.3161,-0.3174,-0.3172,-0.3189,-0.3163,-0.3197,-0.3199,-0.3174,-0.3121,-0.3094,-0.3039,-0.3067,-0.2998,-0.2982,-0.3138,-0.3136,-0.3134,-0.3132,0,0,-0.2811,-0.2926,-0.2928,-0.2938,-0.3041,-0.3054,-0.3126,-0.3162,-0.3142,-0.3203,-0.317,-0.3237,-0.3217,-0.3204,-0.321,-0.3178,-0.3135,-0.3126,-0.3119,-0.3059,-0.293,-0.2888,-0.2866,-0.3076,-0.3073,-0.3071,-0.2911,0,-0.2814,-0.2877,-0.2954,-0.2989,-0.301,-0.3077,-0.3117,-0.3149,-0.317,-0.3154,-0.3178,-0.3151,-0.3225,-0.32,-0.3193,-0.3127,-0.3089,-0.3179,-0.2912,-0.2905,-0.2859,-0.2845,-0.2747,-0.2593,-0.2895,-0.2892,-0.289,0,-0.2811,-0.2844,-0.2889,-0.2933,-0.2946,-0.298,-0.2988,-0.303,-0.3049,-0.3056,-0.3063,-0.3058,-0.3069,-0.3096,-0.3015,-0.3052,-0.2997,-0.2957,-0.2948,-0.2841,-0.2831,-0.2606,-0.2552,-0.2545,-0.2864,-0.2866,-0.2868,0,-0.269,-0.2783,-0.2797,-0.2824,-0.2902,-0.2908,-0.2937,-0.2974,-0.298,-0.2968,-0.2952,-0.2946,-0.2927,-0.2865,-0.2878,-0.29,-0.2743,-0.2756,-0.2664,-0.2661,-0.249,-0.2477,-0.2384,-0.2646,-0.2646,-0.2647,-0.2647,0,-0.2646,-0.2639,-0.2728,-0.2721,-0.2694,-0.2784,-0.2755,-0.2787,-0.2817,-0.28,-0.2868,-0.2846,-0.2856,-0.2812,-0.2797,-0.2693,-0.2679,-0.264,-0.2601,-0.2536,-0.2529,-0.2444,-0.2484,-0.2641,-0.2642,-0.2643,-0.2644,0,-0.2501,-0.2586,-0.2575,-0.263,-0.2641,-0.2601,-0.2661,-0.2641,-0.2691,-0.2672,-0.2668,-0.2729,-0.2679,-0.269,-0.2587,-0.258,-0.2438,-0.2447,-0.2395,-0.2353,-0.226,-0.231,-0.214,-0.2074,-0.2283,-0.228,-0.2278,0,-0.2437,-0.2418,-0.2458,-0.2451,-0.2474,-0.2462,-0.2467,-0.2549,-0.2558,-0.2607,-0.2584,-0.2564,-0.2547,-0.2422,-0.237,-0.2278,-0.2322,-0.2146,-0.2187,-0.2215,-0.2242,-0.2292,-0.2253,-0.202,-0.2016,-0.2013,-0.201,0,-0.2266,-0.2285,-0.228,-0.2274,-0.2278,-0.2279,-0.2302,-0.2301,-0.24,-0.2402,-0.2402,-0.2384,-0.2322,-0.2209,-0.213,-0.2071,-0.2101,-0.2077,-0.2085,-0.2003,-0.2062,-0.1993,-0.2202,-0.1982,-0.1985,-0.1987,-0.1989,-0.199,-0.2125,-0.2082,-0.2097,-0.2074,-0.2088,-0.2082,-0.2039,-0.2105,-0.2098,-0.2107,-0.2188,-0.2147,-0.2116,-0.1985,-0.1919,-0.1798,-0.1873,-0.1764,-0.1815,-0.1857,-0.1813,-0.1984,-0.1746,-0.1747,-0.1748,-0.1749,-0.175,0,-0.1951,-0.1928,-0.19,-0.1889,-0.1847,-0.1911,-0.1916,-0.1872,-0.1831,-0.1911,-0.1904,-0.1898,-0.1784,-0.1766,-0.1662,-0.1579,-0.154,-0.1554,-0.1593,-0.1557,-0.1657,-0.1667,-0.1424,-0.1424,-0.1424,-0.1424,-0.1424,-0.1424,-0.1864,-0.1778,-0.1769,-0.1654,-0.1645,-0.155,-0.1523,-0.1493,-0.1519,-0.1506,-0.1554,-0.1602,-0.1623,-0.1747,-0.1615,-0.1517,-0.1492,-0.1442,-0.1476,-0.1573,-0.1598,-0.1621,-0.1638,-0.1393,-0.1393,-0.1302,-0.1302,-0.1302]},{"header":{"parameterUnit":"m.s-1","parameterCategory":2,"la1":30.2991,"la2":30.254,"lo1":-89.0895,"lo2":-89.0444,"dy":0.0017,"dx":0.0017,"nx":28,"ny":28,"refTime":"2025-11-18T09:00:00:Z","depth":"0","parameterNumber":3,"parameterNumberName":"V-component_of_CURRENTS"},"data":[0,0,0,0,0,0,0,0,0,0,0,0,0,0,0,0,0,0,0,0,0,0,0,0,0,0,0,0,0,0,0,0,0,0,0,0,0,0,0,0,0,0,0,0,0,0,0,0,0,0,0,0,0,0,0,0,0,0,0.0139,0.0141,0,0.0351,0.0354,0.0357,0.0475,0.0474,0.0474,0.0473,0.0629,0.0633,0.0638,0,0,0,0,0,0,0,0,0,0,0,0,0,0.0017,0.0019,0.0139,0.0141,0.0143,0.0351,0.0354,0.0358,0.0475,0.0474,0.0474,0.0473,0.0627,0.0633,0.0638,0,0,0,0,0,0,0,0,0,0,0,0,0,0.0142,0.0019,0.0139,0.022,0.0228,0.035,0.0354,0.0359,0.0475,0.0474,0.0474,0.0473,0.0626,0.0632,0.0639,0.0695,0,0,0.066,0.0663,0,0,0,0,0,0,0,0,0.0134,0.0147,0.0206,0.0214,0.0224,0.0378,0.0368,0.0466,0.0475,0.0391,0.0473,0.0473,0.0535,0.0549,0.0604,0.0703,0.0709,0.0661,0.0665,0.0668,0.067,0,0,0,0,0,0,0,0.0125,0.0139,0.0232,0.0208,0.0219,0.0307,0.0323,0.0389,0.047,0.0398,0.0405,0.0415,0.054,0.0597,0.0608,0.0712,0.066,0.0667,0.0671,0.0673,0.0846,0.0846,0,0,0,0,0,0,0.0073,0.013,0.0225,0.0237,0.0167,0.0308,0.0327,0.0337,0.047,0.0488,0.0415,0.0419,0.0586,0.06,0.0613,0.0659,0.0668,0.0674,0.0678,0.0845,0.0846,0.0847,0,0,0,0,0,0,0.0069,0.0079,0.0216,0.0182,0.0204,0.0309,0.032,0.0341,0.0381,0.0482,0.0501,0.043,0.0586,0.0604,0.0676,0.0666,0.0677,0.0683,0.0845,0.0846,0.0846,0.0768,0,0,0,0,0,0,0.0065,0.0077,0.0076,0.0178,0.0204,0.0271,0.0321,0.0345,0.0385,0.0392,0.0501,0.0517,0.0586,0.0665,0.0682,0.0676,0.0689,0.0844,0.0845,0.0846,0.077,0.0766,0.0763,0,0,0,0,0,0.006,0.0061,0.0075,0.0087,0.0196,0.027,0.0293,0.0372,0.0385,0.0405,0.0486,0.0512,0.0682,0.0672,0.0692,0.0687,0.0844,0.0845,0.0846,0.0772,0.0767,0.0763,0,0,0,0,0,0,0.0009,0.0075,0.0093,0.0112,0.0173,0.0286,0.0314,0.0355,0.044,0.0443,0.0532,0.0555,0.0612,0.0663,0.0649,0.074,0.0762,0.0767,0.0698,0.0694,0.0691,0.0652,0.0695,0,0,0,0,0,-0.0009,0.0007,0.0081,0.0093,0.0117,0.0208,0.0247,0.0295,0.0376,0.0413,0.0493,0.0571,0.0638,0.0673,0.0748,0.0801,0.0811,0.0808,0.0804,0.08,0.0783,0.0795,0.0789,0.085,0.085,0.085,0,0,-0.0028,0.0009,0.0017,0.0083,0.0139,0.017,0.0232,0.0281,0.0309,0.0414,0.0485,0.0563,0.065,0.0719,0.0746,0.0755,0.0788,0.0801,0.0797,0.0783,0.0795,0.0789,0.0783,0.0851,0.0851,0.085,0,0,-0.0067,-0.0028,-0.0032,0.0013,0.0075,0.0139,0.0136,0.024,0.0288,0.0363,0.0441,0.0515,0.0625,0.0696,0.0738,0.0755,0.0768,0.0769,0.072,0.0731,0.0725,0.072,0.0715,0.071,0.0765,0.0765,0.0765,0,-0.0096,-0.0093,-0.002,-0.0012,0.0011,0.0106,0.0105,0.0179,0.0296,0.0326,0.0365,0.0529,0.0613,0.0676,0.0697,0.0743,0.0741,0.0727,0.0722,0.0717,0.0713,0.071,0.0706,0.0761,0.0762,0.0762,0.0763,0,-0.0138,-0.0133,-0.013,-0.0093,-0.0052,-0.0032,0.0056,0.0108,0.0171,0.0244,0.0325,0.0458,0.0542,0.0588,0.0656,0.0675,0.0678,0.0712,0.0722,0.0701,0.0701,0.0697,0.0756,0.0758,0.0759,0.076,0,0,-0.0211,-0.0172,-0.0173,-0.0182,-0.0098,-0.0075,-0.0027,0.0039,0.0049,0.0179,0.0196,0.0356,0.042,0.0473,0.0565,0.0599,0.0592,0.0638,0.064,0.0612,0.059,0.067,0.0674,0.0612,0.0611,0.0611,0.0596,0,-0.0272,-0.03,-0.0248,-0.0267,-0.0274,-0.018,-0.015,-0.0076,0.0006,0.0059,0.0188,0.0254,0.0375,0.0409,0.0463,0.0557,0.058,0.0591,0.0632,0.0633,0.069,0.0673,0.0734,0.0733,0.0593,0.0592,0.0592,0,-0.0336,-0.0346,-0.0386,-0.0376,-0.0371,-0.0357,-0.0311,-0.027,-0.0165,-0.0107,-0.0015,0.0088,0.0183,0.0275,0.0401,0.0394,0.0479,0.0554,0.0556,0.0652,0.0708,0.0736,0.0732,0.0909,0.0587,0.0588,0.0588,0,-0.0441,-0.0445,-0.049,-0.0481,-0.0442,-0.0443,-0.0413,-0.0323,-0.0294,-0.0215,-0.0189,-0.0068,0.0002,0.0108,0.032,0.0331,0.0444,0.0473,0.0619,0.0625,0.0698,0.0713,0.0855,0.0534,0.0534,0.0534,0.0534,0,-0.0528,-0.0562,-0.0546,-0.0568,-0.0612,-0.0551,-0.0569,-0.0516,-0.0452,-0.0424,-0.0286,-0.0229,-0.0035,0.0089,0.024,0.0433,0.0381,0.0598,0.0628,0.0676,0.0687,0.0864,0.0932,0.0533,0.0533,0.0534,0.0534,0,-0.0625,-0.0619,-0.0665,-0.0659,-0.066,-0.0688,-0.0657,-0.066,-0.0594,-0.056,-0.054,-0.0367,-0.02,0.0009,0.0199,0.0349,0.0623,0.0593,0.0639,0.0675,0.096,0.1019,0.1163,0.1271,0.0698,0.07,0.0702,0,-0.0676,-0.0712,-0.0737,-0.0764,-0.076,-0.0784,-0.079,-0.0734,-0.0721,-0.0617,-0.0606,-0.0437,-0.0271,0.0037,0.0314,0.0556,0.0718,0.0753,0.0804,0.0981,0.1067,0.1114,0.1197,0.0857,0.086,0.0862,0.0864,0,-0.0754,-0.076,-0.0791,-0.0852,-0.0877,-0.0904,-0.0905,-0.0918,-0.084,-0.0786,-0.0671,-0.054,-0.0199,0.014,0.0485,0.0645,0.0894,0.0807,0.0978,0.1194,0.1263,0.138,0.0849,0.0884,0.0882,0.088,0.0879,0.0878,-0.0793,-0.0834,-0.0871,-0.0925,-0.0962,-0.0997,-0.1013,-0.0991,-0.0959,-0.084,-0.0714,-0.0452,0.0021,0.0529,0.0711,0.1129,0.1079,0.126,0.1307,0.1331,0.1479,0.0994,0.1084,0.1083,0.1082,0.1081,0.1081,0,-0.083,-0.0873,-0.0935,-0.0994,-0.1044,-0.1042,-0.1062,-0.1037,-0.0986,-0.0811,-0.0649,-0.0076,0.0396,0.0835,0.1393,0.162,0.1674,0.1731,0.1811,0.1866,0.1427,0.1484,0.1681,0.1681,0.1681,0.168,0.168,0.168,-0.0845,-0.0913,-0.0946,-0.1036,-0.1078,-0.1106,-0.1111,-0.1051,-0.0915,-0.0581,-0.0232,0.0065,0.0693,0.1517,0.2034,0.2084,0.2284,0.2265,0.236,0.2067,0.2026,0.1988,0.2061,0.2376,0.2376,0.2809,0.2813,0.2816]}],[{"header":{"parameterUnit":"m.s-1","parameterCategory":2,"la1":30.2991,"la2":30.254,"lo1":-89.0895,"lo2":-89.0444,"dy":0.0017,"dx":0.0017,"nx":28,"ny":28,"refTime":"2025-11-18T09:00:00:Z","depth":"2","parameterNumber":2,"parameterNumberName":"U-component_of_CURRENTS"},"data":[0,0,0,0,0,0,0,0,0,0,0,0,0,0,0,0,0,0,0,0,0,0,0,0,0,0,0,0,0,0,0,0,0,0,0,0,0,0,0,0,0,0,0,0,0,0,0,0,0,0,0,0,0,0,0,0,0,0,-0.2158,-0.2159,0,-0.2178,-0.2178,-0.2177,-0.2155,-0.2155,-0.2155,-0.2155,-0.2173,-0.2174,-0.2175,0,0,0,0,0,0,0,0,0,0,0,0,0,-0.2072,-0.2073,-0.2158,-0.2159,-0.216,-0.2178,-0.2178,-0.2177,-0.2155,-0.2155,-0.2155,-0.2154,-0.2173,-0.2174,-0.2175,0,0,0,0,0,0,0,0,0,0,0,0,0,-0.2097,-0.2074,-0.2158,-0.2156,-0.2156,-0.2178,-0.2178,-0.2177,-0.2156,-0.2155,-0.2155,-0.2154,-0.2172,-0.2174,-0.2175,-0.219,0,0,-0.2178,-0.2179,0,0,0,0,0,0,0,0,-0.2095,-0.2099,-0.2155,-0.2156,-0.2156,-0.2169,-0.2154,-0.2184,-0.2156,-0.2149,-0.2155,-0.2154,-0.2176,-0.2177,-0.2173,-0.2191,-0.2192,-0.2178,-0.2179,-0.2179,-0.218,0,0,0,0,0,0,0,-0.2094,-0.2098,-0.216,-0.2156,-0.2157,-0.2144,-0.2146,-0.2159,-0.216,-0.215,-0.215,-0.2162,-0.2175,-0.2172,-0.2173,-0.2192,-0.2178,-0.2179,-0.218,-0.218,-0.2356,-0.2359,0,0,0,0,0,0,-0.2106,-0.2097,-0.216,-0.2161,-0.2131,-0.2146,-0.2149,-0.2161,-0.216,-0.2161,-0.2162,-0.2161,-0.217,-0.2172,-0.2174,-0.2227,-0.2179,-0.2181,-0.2181,-0.2352,-0.2356,-0.2361,0,0,0,0,0,0,-0.2104,-0.2111,-0.2159,-0.2134,-0.214,-0.2149,-0.2162,-0.2161,-0.2169,-0.217,-0.217,-0.2172,-0.217,-0.2172,-0.2214,-0.2226,-0.2181,-0.2182,-0.2347,-0.2353,-0.2359,-0.2312,0,0,0,0,0,0,-0.2101,-0.211,-0.2119,-0.2135,-0.2142,-0.2184,-0.2163,-0.2162,-0.2179,-0.2178,-0.2179,-0.218,-0.217,-0.2212,-0.2215,-0.2227,-0.2183,-0.2342,-0.235,-0.2357,-0.2308,-0.2315,-0.2321,0,0,0,0,0,-0.2098,-0.2115,-0.2119,-0.2127,-0.2155,-0.2185,-0.2187,-0.2187,-0.2181,-0.219,-0.2204,-0.218,-0.2263,-0.2215,-0.2218,-0.223,-0.2338,-0.2348,-0.2356,-0.2305,-0.2314,-0.2321,0,0,0,0,0,0,-0.2086,-0.2116,-0.212,-0.2146,-0.217,-0.2184,-0.2193,-0.2199,-0.2214,-0.2214,-0.221,-0.2212,-0.2254,-0.2277,-0.2225,-0.2319,-0.2306,-0.2316,-0.2267,-0.2275,-0.2282,-0.2289,-0.2184,0,0,0,0,0,-0.2089,-0.2105,-0.2137,-0.2157,-0.2171,-0.2185,-0.2196,-0.2202,-0.2222,-0.2227,-0.2234,-0.2264,-0.2293,-0.2309,-0.2336,-0.2377,-0.2362,-0.2405,-0.2411,-0.2416,-0.2434,-0.2401,-0.2403,-0.239,-0.239,-0.239,0,0,-0.2091,-0.211,-0.2119,-0.2155,-0.2168,-0.2198,-0.2189,-0.2216,-0.2243,-0.223,-0.2265,-0.2276,-0.2314,-0.2353,-0.2377,-0.2369,-0.2418,-0.2427,-0.2429,-0.2446,-0.241,-0.241,-0.241,-0.2396,-0.2395,-0.2394,0,0,-0.2102,-0.212,-0.2136,-0.2163,-0.2197,-0.2211,-0.2226,-0.2253,-0.2266,-0.2311,-0.2309,-0.234,-0.2389,-0.2406,-0.2425,-0.2501,-0.2448,-0.2521,-0.2548,-0.2514,-0.2512,-0.251,-0.2486,-0.2482,-0.2526,-0.2526,-0.2526,0,-0.2099,-0.213,-0.2146,-0.2176,-0.22,-0.2223,-0.2252,-0.2278,-0.2316,-0.2325,-0.2332,-0.2394,-0.2418,-0.2455,-0.2492,-0.2506,-0.2478,-0.2489,-0.2511,-0.251,-0.2508,-0.2484,-0.248,-0.2525,-0.2525,-0.2525,-0.2525,0,-0.2125,-0.2155,-0.2171,-0.2212,-0.2239,-0.2272,-0.2314,-0.234,-0.2362,-0.2376,-0.2417,-0.2448,-0.2481,-0.2503,-0.2521,-0.2541,-0.2519,-0.2503,-0.246,-0.2504,-0.2479,-0.2475,-0.2523,-0.2524,-0.2524,-0.2524,0,0,-0.2093,-0.2172,-0.2175,-0.2202,-0.2262,-0.2285,-0.2337,-0.2377,-0.2399,-0.2435,-0.2456,-0.2522,-0.2514,-0.2544,-0.2554,-0.2551,-0.2521,-0.2531,-0.253,-0.2455,-0.2436,-0.2369,-0.2358,-0.2474,-0.2474,-0.2474,-0.2415,0,-0.2103,-0.2162,-0.2199,-0.2253,-0.2286,-0.2328,-0.2373,-0.241,-0.2441,-0.2468,-0.2493,-0.2521,-0.2536,-0.2544,-0.2541,-0.2533,-0.2514,-0.254,-0.2455,-0.2454,-0.2342,-0.2353,-0.2187,-0.2116,-0.2412,-0.2411,-0.2411,0,-0.2105,-0.2146,-0.2202,-0.2274,-0.229,-0.2325,-0.2377,-0.2422,-0.2465,-0.2487,-0.2503,-0.2516,-0.2543,-0.2541,-0.2518,-0.2521,-0.2489,-0.2475,-0.247,-0.2424,-0.238,-0.213,-0.2098,-0.2405,-0.2406,-0.2406,-0.2407,0,-0.206,-0.2142,-0.2183,-0.2212,-0.2298,-0.2321,-0.236,-0.2412,-0.2439,-0.2485,-0.2496,-0.2514,-0.2523,-0.2492,-0.2484,-0.2485,-0.2438,-0.2424,-0.2328,-0.2323,-0.2181,-0.2163,-0.2386,-0.2386,-0.2386,-0.2387,-0.2387,0,-0.2052,-0.2082,-0.2166,-0.219,-0.2223,-0.2294,-0.2326,-0.2369,-0.2424,-0.2439,-0.2489,-0.2494,-0.2507,-0.2486,-0.2467,-0.2388,-0.241,-0.2337,-0.23,-0.2166,-0.2148,-0.2411,-0.2414,-0.2384,-0.2385,-0.2385,-0.2386,0,-0.199,-0.2059,-0.2098,-0.2182,-0.2202,-0.2218,-0.2288,-0.2309,-0.2378,-0.2398,-0.241,-0.2463,-0.2436,-0.2433,-0.2392,-0.2353,-0.2298,-0.2258,-0.2112,-0.2059,-0.2211,-0.2215,-0.2142,-0.2139,-0.2136,-0.2134,-0.2133,0,-0.1963,-0.1981,-0.2055,-0.2065,-0.2098,-0.2139,-0.2162,-0.2257,-0.2282,-0.2365,-0.236,-0.2372,-0.2341,-0.2273,-0.2206,-0.2129,-0.2211,-0.1944,-0.1929,-0.2213,-0.2185,-0.2192,-0.2199,-0.1723,-0.1718,-0.1714,-0.1711,0,-0.1885,-0.1912,-0.1939,-0.1963,-0.1988,-0.2016,-0.2064,-0.2079,-0.2185,-0.2207,-0.2224,-0.2213,-0.2168,-0.2019,-0.1945,-0.1883,-0.1949,-0.1858,-0.216,-0.1821,-0.1816,-0.179,-0.181,-0.1674,-0.1678,-0.1681,-0.1683,-0.1684,-0.1797,-0.179,-0.1823,-0.183,-0.1859,-0.1867,-0.1848,-0.1913,-0.1926,-0.194,-0.2025,-0.1957,-0.1947,-0.1737,-0.1641,-0.1569,-0.1703,-0.1635,-0.1649,-0.1666,-0.1638,-0.1629,-0.1449,-0.1451,-0.1453,-0.1455,-0.1456,0,-0.1674,-0.1683,-0.1685,-0.1694,-0.167,-0.1733,-0.1753,-0.1714,-0.168,-0.1725,-0.1717,-0.1545,-0.1445,-0.1437,-0.1265,-0.1232,-0.1222,-0.1186,-0.1178,-0.1215,-0.1247,-0.1199,-0.0892,-0.0891,-0.0889,-0.0888,0,0,-0.1608,-0.157,-0.1573,-0.1494,-0.1497,-0.1423,-0.1401,-0.1369,-0.1366,-0.1301,-0.1274,-0.1383,-0.1403,-0.1158,-0.1092,-0.0965,-0.1079,-0.0912,-0.1364,-0.1392,-0.1422,-0.1504,-0.1471,0,0,0,0,0]},{"header":{"parameterUnit":"m.s-1","parameterCategory":2,"la1":30.2991,"la2":30.254,"lo1":-89.0895,"lo2":-89.0444,"dy":0.0017,"dx":0.0017,"nx":28,"ny":28,"refTime":"2025-11-18T09:00:00:Z","depth":"2","parameterNumber":3,"parameterNumberName":"V-component_of_CURRENTS"},"data":[0,0,0,0,0,0,0,0,0,0,0,0,0,0,0,0,0,0,0,0,0,0,0,0,0,0,0,0,0,0,0,0,0,0,0,0,0,0,0,0,0,0,0,0,0,0,0,0,0,0,0,0,0,0,0,0,0,0,-0.0291,-0.0291,0,-0.024,-0.024,-0.024,-0.0202,-0.0202,-0.0201,-0.02,-0.0063,-0.006,-0.0057,0,0,0,0,0,0,0,0,0,0,0,0,0,-0.0323,-0.0324,-0.0291,-0.029,-0.029,-0.024,-0.024,-0.024,-0.0202,-0.0202,-0.0201,-0.02,-0.0064,-0.006,-0.0056,0,0,0,0,0,0,0,0,0,0,0,0,0,-0.0298,-0.0324,-0.0292,-0.0263,-0.0259,-0.024,-0.024,-0.0239,-0.0203,-0.0202,-0.0201,-0.02,-0.0065,-0.0061,-0.0056,-0.0045,0,0,-0.0042,-0.004,0,0,0,0,0,0,0,0,-0.0299,-0.0297,-0.0268,-0.0265,-0.0261,-0.0224,-0.0201,-0.0169,-0.0203,-0.0227,-0.02,-0.0199,-0.0107,-0.0099,-0.0097,-0.0039,-0.0033,-0.0041,-0.0039,-0.0037,-0.0035,0,0,0,0,0,0,0,-0.0301,-0.0299,-0.0274,-0.0267,-0.0263,-0.0241,-0.0237,-0.0195,-0.0174,-0.0225,-0.0222,-0.0211,-0.0105,-0.0102,-0.0093,-0.0031,-0.0041,-0.0037,-0.0034,-0.0033,0.0134,0.0136,0,0,0,0,0,0,-0.0304,-0.0301,-0.0276,-0.0272,-0.0275,-0.0241,-0.0237,-0.0239,-0.0176,-0.0165,-0.0212,-0.021,-0.011,-0.0099,-0.0088,-0.0064,-0.0037,-0.0032,-0.003,0.0132,0.0134,0.0136,0,0,0,0,0,0,-0.0305,-0.0303,-0.0278,-0.0282,-0.0277,-0.0241,-0.0245,-0.0239,-0.0228,-0.0167,-0.0155,-0.0206,-0.0109,-0.0095,-0.0048,-0.0058,-0.003,-0.0026,0.0131,0.0133,0.0135,-0.002,0,0,0,0,0,0,-0.0307,-0.0304,-0.0309,-0.0283,-0.0277,-0.0271,-0.0245,-0.0238,-0.0222,-0.0218,-0.0157,-0.0144,-0.0107,-0.0056,-0.0044,-0.0051,-0.0022,0.0128,0.0132,0.0135,-0.0017,-0.0023,-0.0028,0,0,0,0,0,-0.0308,-0.0321,-0.031,-0.0307,-0.0285,-0.0271,-0.0267,-0.0239,-0.0222,-0.0225,-0.0179,-0.0146,-0.0026,-0.0052,-0.0038,-0.0045,0.0127,0.0131,0.0134,-0.0014,-0.0022,-0.0028,0,0,0,0,0,0,-0.0338,-0.0317,-0.0305,-0.0311,-0.0292,-0.0263,-0.0262,-0.0241,-0.021,-0.0202,-0.0144,-0.0129,-0.0091,-0.0029,-0.0059,0.0024,0.0065,0.0071,-0.0052,-0.0059,-0.0065,-0.0045,-0.0018,0,0,0,0,0,-0.0347,-0.0352,-0.0325,-0.033,-0.0322,-0.0292,-0.0282,-0.0264,-0.0231,-0.0218,-0.0174,-0.011,-0.0065,-0.0034,0.0016,0.0052,0.0115,0.0072,0.0066,0.006,0.0093,0.015,0.0151,0.0148,0.0148,0.0148,0,0,-0.0359,-0.0348,-0.035,-0.0336,-0.032,-0.032,-0.0285,-0.0275,-0.0268,-0.0205,-0.0182,-0.0139,-0.0059,-0.0028,-0.0001,0.0021,0.0092,0.0065,0.0057,0.0096,0.0154,0.0153,0.0153,0.0151,0.015,0.015,0,0,-0.039,-0.0378,-0.0392,-0.0381,-0.0359,-0.0341,-0.0338,-0.0308,-0.0289,-0.0262,-0.0215,-0.0166,-0.0098,-0.0048,-0.0011,-0.0002,0.0052,0.0013,-0.0002,0.005,0.0049,0.005,0.0102,0.0109,0.0016,0.0016,0.0016,0,-0.0405,-0.0419,-0.0394,-0.0402,-0.0394,-0.0352,-0.0363,-0.0341,-0.0299,-0.0277,-0.0262,-0.0152,-0.0099,-0.0046,-0.0045,-0.002,0.0017,-0.0006,0.0035,0.0038,0.0041,0.0095,0.0104,0.0009,0.001,0.001,0.0011,0,-0.0445,-0.0453,-0.046,-0.0458,-0.0448,-0.0449,-0.0413,-0.0397,-0.0365,-0.0333,-0.0275,-0.0206,-0.013,-0.0117,-0.0083,-0.0032,-0.0013,0.0002,0.0032,0.003,0.0089,0.0101,-0.0001,0.0001,0.0003,0.0005,0,0,-0.0487,-0.0489,-0.049,-0.0497,-0.0476,-0.0473,-0.0459,-0.0429,-0.0409,-0.0359,-0.0323,-0.0245,-0.0199,-0.0147,-0.0101,-0.0048,-0.0018,-0.0021,-0.0015,-0.0004,0.0089,0.0109,0.0125,-0.0023,-0.0021,-0.002,0.0109,0,-0.0525,-0.0558,-0.0542,-0.0564,-0.0577,-0.0534,-0.0523,-0.0487,-0.0441,-0.0398,-0.0311,-0.0259,-0.0215,-0.0187,-0.0131,-0.0043,0.0013,-0.0053,0.0126,0.0133,0.0119,0.014,0.0113,0.0226,0.0121,0.0123,0.0125,0,-0.057,-0.0584,-0.0619,-0.0615,-0.0614,-0.0616,-0.0581,-0.0564,-0.049,-0.045,-0.0377,-0.031,-0.0214,-0.0183,-0.0021,-0.0076,0.001,0.008,0.0086,0.018,0.0176,0.0224,0.0253,0.0146,0.0144,0.0143,0.0141,0,-0.0618,-0.0635,-0.0664,-0.0665,-0.0655,-0.0652,-0.0639,-0.0581,-0.0561,-0.0477,-0.0448,-0.0329,-0.0263,-0.0143,0.0006,-0.0013,0.0181,0.0172,0.028,0.0282,0.0343,0.0347,0.0302,0.0301,0.0301,0.0301,0.03,0,-0.0669,-0.069,-0.069,-0.0707,-0.0729,-0.0699,-0.0699,-0.0663,-0.0607,-0.0581,-0.0478,-0.0421,-0.0251,-0.0126,0.0001,0.0183,0.0182,0.0305,0.0326,0.0288,0.0286,0.0294,0.0291,0.0306,0.0305,0.0304,0.0303,0,-0.0722,-0.0725,-0.0757,-0.0756,-0.0758,-0.0772,-0.0757,-0.075,-0.0688,-0.065,-0.0625,-0.048,-0.031,-0.0136,0.0078,0.0183,0.035,0.0415,0.0361,0.0374,0.0417,0.0405,0.0553,0.0555,0.0556,0.0558,0.0559,0,-0.0753,-0.0777,-0.08,-0.0825,-0.0829,-0.0842,-0.085,-0.0801,-0.0788,-0.0682,-0.0666,-0.0494,-0.0359,-0.0041,0.0177,0.0416,0.0411,0.0524,0.0502,0.0442,0.0448,0.0433,0.042,0.0515,0.0516,0.0517,0.0517,0,-0.0804,-0.081,-0.0835,-0.089,-0.0914,-0.0935,-0.0938,-0.0942,-0.0873,-0.0813,-0.0701,-0.0581,-0.0273,-0.0008,0.0295,0.0427,0.0481,0.0544,0.0516,0.0446,0.0415,0.0417,0.0404,0.0523,0.0522,0.0522,0.0521,0.0521,-0.083,-0.0864,-0.0899,-0.0947,-0.0982,-0.1014,-0.1026,-0.1004,-0.0967,-0.0857,-0.0739,-0.0527,-0.0273,0.0164,0.0373,0.0565,0.0562,0.0612,0.0607,0.0602,0.0564,0.0537,0.0661,0.0662,0.0662,0.0662,0.0662,0,-0.0859,-0.0898,-0.0953,-0.1008,-0.1054,-0.1054,-0.1069,-0.1048,-0.0996,-0.0855,-0.0708,-0.0416,-0.0107,0.0152,0.0462,0.0646,0.0626,0.067,0.0606,0.06,0.0595,0.0554,0.0651,0.0651,0.0652,0.0652,0,0,-0.0875,-0.0932,-0.0962,-0.1047,-0.1088,-0.1118,-0.1122,-0.1067,-0.0962,-0.0812,-0.0643,-0.041,-0.009,0.0124,0.0354,0.0513,0.0508,0.0526,0.0518,0.0411,0.0403,0.0548,0.0477,0,0,0,0,0]}],[{"header":{"parameterUnit":"m.s-1","parameterCategory":2,"la1":30.2991,"la2":30.254,"lo1":-89.0895,"lo2":-89.0444,"dy":0.0017,"dx":0.0017,"nx":28,"ny":28,"refTime":"2025-11-18T09:00:00:Z","depth":"4","parameterNumber":2,"parameterNumberName":"U-component_of_CURRENTS"},"data":[0,0,0,0,0,0,0,0,0,0,0,0,0,0,0,0,0,0,0,0,0,0,0,0,0,0,0,0,0,0,0,0,0,0,0,0,0,0,0,0,0,0,0,0,0,0,0,0,0,0,0,0,0,0,0,0,0,0,-0.1438,-0.1439,0,-0.1484,-0.1484,-0.1484,-0.1508,-0.1509,-0.1509,-0.1509,-0.1531,-0.1531,-0.1531,0,0,0,0,0,0,0,0,0,0,0,0,0,-0.1356,-0.1357,-0.1438,-0.1439,-0.1439,-0.1484,-0.1484,-0.1485,-0.1508,-0.1509,-0.1509,-0.1509,-0.1531,-0.1531,-0.1531,0,0,0,0,0,0,0,0,0,0,0,0,0,-0.1393,-0.1358,-0.1438,-0.1459,-0.1461,-0.1484,-0.1484,-0.1485,-0.1508,-0.1509,-0.1509,-0.1509,-0.1531,-0.1531,-0.1531,-0.1526,0,0,-0.1533,-0.1533,0,0,0,0,0,0,0,0,-0.1391,-0.1396,-0.1455,-0.1457,-0.146,-0.1493,-0.1464,-0.1498,-0.1508,-0.1487,-0.1509,-0.151,-0.1517,-0.1519,-0.1523,-0.1527,-0.1528,-0.1533,-0.1533,-0.1533,-0.1534,0,0,0,0,0,0,0,-0.1388,-0.1394,-0.1453,-0.1456,-0.1459,-0.1461,-0.1467,-0.147,-0.1497,-0.1489,-0.1492,-0.1501,-0.1518,-0.1523,-0.1524,-0.1528,-0.1533,-0.1533,-0.1534,-0.1534,-0.16,-0.1601,0,0,0,0,0,0,-0.1389,-0.1392,-0.1452,-0.1455,-0.1429,-0.1463,-0.1469,-0.148,-0.1497,-0.1502,-0.1501,-0.1502,-0.1522,-0.1523,-0.1525,-0.1578,-0.1533,-0.1534,-0.1534,-0.1598,-0.16,-0.1602,0,0,0,0,0,0,-0.1387,-0.1394,-0.145,-0.1426,-0.1434,-0.1464,-0.1476,-0.1481,-0.1509,-0.1507,-0.151,-0.1528,-0.1522,-0.1524,-0.1555,-0.1577,-0.1534,-0.1534,-0.1597,-0.1599,-0.1601,-0.1646,0,0,0,0,0,0,-0.1384,-0.1393,-0.141,-0.1426,-0.1436,-0.1479,-0.1476,-0.1481,-0.1514,-0.1517,-0.1531,-0.1532,-0.1522,-0.1555,-0.1556,-0.1576,-0.1535,-0.1595,-0.1598,-0.16,-0.1643,-0.165,-0.1656,0,0,0,0,0,-0.1381,-0.1399,-0.1411,-0.1419,-0.1455,-0.148,-0.1485,-0.1505,-0.1516,-0.1531,-0.1548,-0.1533,-0.1573,-0.1557,-0.1557,-0.1579,-0.1593,-0.1597,-0.16,-0.164,-0.1649,-0.1656,0,0,0,0,0,0,-0.1374,-0.1404,-0.1417,-0.1444,-0.1469,-0.1485,-0.1506,-0.152,-0.1545,-0.1556,-0.1551,-0.1554,-0.159,-0.1581,-0.1564,-0.1608,-0.1581,-0.1584,-0.1611,-0.1619,-0.1625,-0.1634,-0.1535,0,0,0,0,0,-0.1381,-0.1402,-0.1429,-0.1453,-0.147,-0.1494,-0.1511,-0.1527,-0.1547,-0.156,-0.1574,-0.1588,-0.16,-0.1609,-0.1619,-0.1641,-0.1637,-0.1656,-0.1663,-0.1668,-0.1677,-0.17,-0.1709,-0.1613,-0.1612,-0.1612,0,0,-0.1386,-0.1405,-0.1418,-0.1454,-0.1476,-0.1505,-0.1505,-0.154,-0.157,-0.1557,-0.1608,-0.1614,-0.1613,-0.1642,-0.1656,-0.1639,-0.1693,-0.1672,-0.1677,-0.1683,-0.1704,-0.1714,-0.1722,-0.1615,-0.1614,-0.1614,0,0,-0.1397,-0.1425,-0.1445,-0.1471,-0.1511,-0.1528,-0.1545,-0.158,-0.1605,-0.1647,-0.1648,-0.167,-0.1694,-0.1695,-0.1697,-0.1745,-0.1729,-0.1752,-0.1786,-0.1808,-0.1816,-0.1823,-0.1821,-0.1828,-0.175,-0.1751,-0.1751,0,-0.1403,-0.1435,-0.1456,-0.1484,-0.1513,-0.1543,-0.1576,-0.1603,-0.1646,-0.1668,-0.1673,-0.1722,-0.1717,-0.1745,-0.1762,-0.1758,-0.1766,-0.1753,-0.1816,-0.1822,-0.1829,-0.1825,-0.1832,-0.1753,-0.1753,-0.1753,-0.1752,0,-0.1423,-0.1462,-0.1479,-0.1526,-0.1557,-0.1593,-0.1633,-0.167,-0.1705,-0.1727,-0.178,-0.1785,-0.1809,-0.1813,-0.1801,-0.1845,-0.1833,-0.1823,-0.1793,-0.1841,-0.1835,-0.184,-0.1757,-0.1756,-0.1755,-0.1755,0,0,-0.14,-0.1479,-0.1488,-0.1526,-0.1587,-0.1613,-0.1668,-0.1719,-0.1762,-0.1802,-0.1853,-0.1872,-0.1881,-0.1885,-0.1879,-0.1896,-0.1935,-0.1885,-0.1884,-0.1877,-0.1979,-0.1827,-0.1819,-0.1944,-0.1945,-0.1947,-0.1952,0,-0.1413,-0.1477,-0.1513,-0.1582,-0.1621,-0.1669,-0.1719,-0.1768,-0.1813,-0.187,-0.1885,-0.193,-0.1907,-0.1927,-0.1943,-0.1944,-0.1956,-0.1934,-0.1938,-0.1938,-0.1793,-0.1822,-0.1952,-0.1956,-0.1958,-0.1959,-0.1959,0,-0.1414,-0.1463,-0.1534,-0.1623,-0.1646,-0.1694,-0.178,-0.1827,-0.1898,-0.1933,-0.1974,-0.1994,-0.2025,-0.2005,-0.2027,-0.202,-0.2007,-0.2001,-0.2001,-0.1849,-0.1797,-0.1902,-0.197,-0.1969,-0.1968,-0.1967,-0.1967,0,-0.138,-0.1473,-0.1536,-0.1567,-0.1669,-0.1716,-0.1772,-0.1848,-0.189,-0.1978,-0.2011,-0.2058,-0.2081,-0.2091,-0.2062,-0.2062,-0.2079,-0.207,-0.1921,-0.1909,-0.2024,-0.2017,-0.2092,-0.2092,-0.2092,-0.2092,-0.2092,0,-0.1367,-0.142,-0.1534,-0.1569,-0.1642,-0.1719,-0.1797,-0.1855,-0.1939,-0.1975,-0.2042,-0.2062,-0.2109,-0.2112,-0.2092,-0.2006,-0.2096,-0.1928,-0.1903,-0.2042,-0.2037,-0.2027,-0.202,-0.2092,-0.2092,-0.2092,-0.2092,0,-0.1314,-0.1394,-0.1468,-0.159,-0.1629,-0.168,-0.1793,-0.1836,-0.1932,-0.1981,-0.2009,-0.2077,-0.207,-0.2082,-0.2088,-0.2014,-0.197,-0.1918,-0.2056,-0.2038,-0.1784,-0.1779,-0.1762,-0.1757,-0.1753,-0.1749,-0.1746,0,-0.1288,-0.1326,-0.146,-0.1496,-0.1556,-0.1645,-0.1693,-0.1811,-0.1845,-0.1957,-0.1958,-0.2003,-0.2021,-0.1901,-0.1938,-0.1884,-0.1855,-0.1828,-0.1816,-0.1774,-0.1752,-0.1754,-0.1755,-0.1739,-0.1737,-0.1736,-0.1735,0,-0.1229,-0.1291,-0.1347,-0.1423,-0.1488,-0.1549,-0.1629,-0.1642,-0.1759,-0.1867,-0.1848,-0.1834,-0.1819,-0.1799,-0.176,-0.1725,-0.1848,-0.1781,-0.1791,-0.1779,-0.1745,-0.1728,-0.1735,-0.172,-0.1722,-0.1723,-0.1724,0,-0.1172,-0.1192,-0.1269,-0.1319,-0.1393,-0.1414,-0.1482,-0.1514,-0.1564,-0.169,-0.1677,-0.1722,-0.1796,-0.1715,-0.1683,-0.1629,-0.1607,-0.1559,-0.158,-0.1597,-0.1537,-0.1469,-0.1336,0,0,0,0,0,-0.1101,-0.111,-0.1152,-0.1202,-0.1269,-0.1309,-0.1411,-0.148,-0.1598,-0.1535,-0.1601,-0.1575,-0.153,-0.1559,-0.1465,-0.1603,-0.1612,-0.1488,-0.1569,-0.1634,-0.1652,-0.1594,0,0,0,0,0,0,-0.1051,-0.1092,-0.1108,-0.1084,-0.1091,-0.1152,-0.1207,-0.1297,-0.1274,-0.1397,-0.1375,-0.1472,-0.1444,-0.1545,-0.1427,-0.1434,-0.145,-0.1527,-0.1523,-0.1624,-0.164,-0.1654,-0.1601,0,0,0,0,0]},{"header":{"parameterUnit":"m.s-1","parameterCategory":2,"la1":30.2991,"la2":30.254,"lo1":-89.0895,"lo2":-89.0444,"dy":0.0017,"dx":0.0017,"nx":28,"ny":28,"refTime":"2025-11-18T09:00:00:Z","depth":"4","parameterNumber":3,"parameterNumberName":"V-component_of_CURRENTS"},"data":[0,0,0,0,0,0,0,0,0,0,0,0,0,0,0,0,0,0,0,0,0,0,0,0,0,0,0,0,0,0,0,0,0,0,0,0,0,0,0,0,0,0,0,0,0,0,0,0,0,0,0,0,0,0,0,0,0,0,-0.0276,-0.0276,0,-0.0261,-0.0261,-0.0261,-0.0241,-0.0241,-0.024,-0.024,-0.0164,-0.0163,-0.0161,0,0,0,0,0,0,0,0,0,0,0,0,0,-0.0272,-0.0273,-0.0277,-0.0276,-0.0276,-0.0261,-0.0261,-0.0261,-0.0241,-0.0241,-0.024,-0.024,-0.0165,-0.0163,-0.0161,0,0,0,0,0,0,0,0,0,0,0,0,0,-0.0268,-0.0273,-0.0277,-0.0263,-0.0262,-0.0261,-0.0261,-0.0261,-0.0241,-0.0241,-0.024,-0.0239,-0.0166,-0.0163,-0.0161,-0.0159,0,0,-0.0154,-0.0153,0,0,0,0,0,0,0,0,-0.0269,-0.0269,-0.0266,-0.0264,-0.0263,-0.0251,-0.0232,-0.0224,-0.0241,-0.025,-0.024,-0.0239,-0.0188,-0.0184,-0.0185,-0.0156,-0.0152,-0.0153,-0.0152,-0.0151,-0.015,0,0,0,0,0,0,0,-0.0269,-0.0269,-0.0272,-0.0265,-0.0264,-0.0253,-0.0252,-0.0231,-0.0223,-0.0249,-0.0248,-0.0245,-0.0187,-0.0187,-0.0182,-0.0151,-0.0153,-0.0151,-0.015,-0.0149,-0.0115,-0.0115,0,0,0,0,0,0,-0.027,-0.027,-0.0272,-0.0271,-0.0263,-0.0253,-0.0252,-0.0257,-0.0224,-0.0219,-0.0245,-0.0244,-0.0191,-0.0185,-0.018,-0.0181,-0.0151,-0.0149,-0.0147,-0.0114,-0.0115,-0.0116,0,0,0,0,0,0,-0.0271,-0.0271,-0.0273,-0.0269,-0.0268,-0.0254,-0.0259,-0.0257,-0.0256,-0.0221,-0.0215,-0.0247,-0.0191,-0.0183,-0.0165,-0.0178,-0.0148,-0.0145,-0.0114,-0.0115,-0.0115,-0.018,0,0,0,0,0,0,-0.0271,-0.0272,-0.0279,-0.0269,-0.0268,-0.0279,-0.026,-0.0257,-0.0255,-0.0253,-0.022,-0.0213,-0.019,-0.0169,-0.0163,-0.0174,-0.0143,-0.0113,-0.0114,-0.0115,-0.0177,-0.0183,-0.0188,0,0,0,0,0,-0.0271,-0.0284,-0.028,-0.028,-0.0278,-0.0279,-0.0279,-0.0267,-0.0255,-0.0263,-0.0239,-0.0214,-0.0171,-0.0168,-0.016,-0.0171,-0.0113,-0.0114,-0.0115,-0.0175,-0.0182,-0.0188,0,0,0,0,0,0,-0.0288,-0.0283,-0.0278,-0.029,-0.0287,-0.0276,-0.028,-0.0271,-0.026,-0.0255,-0.022,-0.0212,-0.0202,-0.0177,-0.0174,-0.0164,-0.0138,-0.0138,-0.0186,-0.0193,-0.0198,-0.019,-0.0141,0,0,0,0,0,-0.0295,-0.0304,-0.0296,-0.0307,-0.0305,-0.0294,-0.0293,-0.0286,-0.0273,-0.0268,-0.0244,-0.0219,-0.0202,-0.019,-0.0171,-0.0164,-0.0108,-0.0165,-0.0171,-0.0175,-0.0164,-0.0087,-0.0084,-0.012,-0.012,-0.012,0,0,-0.0305,-0.0303,-0.0309,-0.0311,-0.0306,-0.0315,-0.0292,-0.0296,-0.0302,-0.026,-0.0258,-0.0236,-0.0205,-0.02,-0.0193,-0.018,-0.014,-0.0177,-0.0181,-0.0166,-0.0088,-0.0084,-0.0081,-0.012,-0.012,-0.012,0,0,-0.033,-0.0328,-0.0343,-0.0343,-0.034,-0.0334,-0.0336,-0.0327,-0.0322,-0.0321,-0.0292,-0.0274,-0.0252,-0.023,-0.0217,-0.0238,-0.0172,-0.0236,-0.0254,-0.0181,-0.0177,-0.0172,-0.0111,-0.0101,-0.0237,-0.0237,-0.0237,0,-0.0342,-0.0359,-0.0348,-0.0361,-0.0363,-0.0345,-0.0359,-0.0356,-0.0343,-0.0331,-0.0328,-0.028,-0.0265,-0.024,-0.0258,-0.0249,-0.0194,-0.0235,-0.0186,-0.018,-0.0175,-0.0113,-0.0101,-0.0241,-0.024,-0.024,-0.024,0,-0.0375,-0.0389,-0.0397,-0.0407,-0.0409,-0.042,-0.041,-0.0408,-0.0398,-0.0382,-0.0356,-0.033,-0.0294,-0.0299,-0.0291,-0.025,-0.022,-0.0203,-0.0168,-0.0175,-0.011,-0.0096,-0.0245,-0.0244,-0.0243,-0.0242,0,0,-0.0399,-0.0418,-0.0421,-0.0431,-0.0434,-0.0439,-0.0445,-0.0437,-0.0428,-0.041,-0.0384,-0.0373,-0.0339,-0.0321,-0.0297,-0.0248,-0.0187,-0.0216,-0.0211,-0.0153,-0.002,-0.0053,-0.004,-0.0151,-0.0149,-0.0147,0.0004,0,-0.0427,-0.0464,-0.0461,-0.0491,-0.0506,-0.0489,-0.0494,-0.0481,-0.0462,-0.0433,-0.0388,-0.036,-0.0352,-0.0335,-0.0284,-0.0209,-0.0149,-0.0229,-0.0024,-0.0018,-0.0043,-0.0025,-0.014,0.0015,0.0018,0.0021,0.0022,0,-0.046,-0.0478,-0.0516,-0.0527,-0.0531,-0.0545,-0.0533,-0.0534,-0.0487,-0.0464,-0.0413,-0.0369,-0.0306,-0.0295,-0.0146,-0.0192,-0.011,-0.0049,-0.004,-0.0033,-0.0023,0.0027,0.0049,0.0047,0.0045,0.0043,0.0041,0,-0.0484,-0.0513,-0.0545,-0.0553,-0.0564,-0.0572,-0.0573,-0.0544,-0.0538,-0.0474,-0.045,-0.0355,-0.0307,-0.0187,-0.0086,-0.0099,0.0091,0.0094,0.0152,0.0151,0.0164,0.0158,0.0224,0.0224,0.0223,0.0223,0.0223,0,-0.0513,-0.0539,-0.0562,-0.0581,-0.061,-0.0601,-0.0614,-0.0595,-0.0558,-0.054,-0.0466,-0.0419,-0.0275,-0.0163,-0.006,0.0082,0.012,0.0162,0.0193,0.0129,0.0118,0.0174,0.0166,0.0229,0.0227,0.0226,0.0225,0,-0.0538,-0.0556,-0.0595,-0.0617,-0.0628,-0.0648,-0.0658,-0.0658,-0.0616,-0.0585,-0.0563,-0.0448,-0.0301,-0.0159,0.004,0.0105,0.0249,0.0294,0.0212,0.0234,0.0258,0.0245,0.0387,0.0387,0.0388,0.0388,0.0388,0,-0.0553,-0.0578,-0.0626,-0.0657,-0.0674,-0.0701,-0.0719,-0.0694,-0.0686,-0.0604,-0.0584,-0.0442,-0.0354,-0.0087,0.0052,0.0269,0.0286,0.0361,0.0309,0.0262,0.0278,0.0264,0.0251,0.0388,0.0388,0.0388,0.0388,0,-0.0576,-0.0599,-0.063,-0.0696,-0.0733,-0.0763,-0.0779,-0.0776,-0.0731,-0.0696,-0.0577,-0.0441,-0.0274,-0.0085,0.008,0.0228,0.0309,0.0363,0.0364,0.0316,0.0265,0.0278,0.0265,0.0389,0.0389,0.0389,0.0389,0,-0.0589,-0.062,-0.0668,-0.072,-0.0775,-0.0805,-0.0811,-0.078,-0.0756,-0.0659,-0.0618,-0.0435,-0.0319,-0.0104,0.0046,0.0186,0.0215,0.0246,0.0253,0.0254,0.015,0.0061,0.0164,0,0,0,0,0,-0.0593,-0.0631,-0.0688,-0.0744,-0.08,-0.0826,-0.0841,-0.0832,-0.079,-0.0709,-0.0658,-0.05,-0.026,-0.015,-0.0012,0.0029,0.0219,0.0191,0.0253,0.0393,0.0392,0.0288,0,0,0,0,0,0,-0.0598,-0.0654,-0.0684,-0.0751,-0.0794,-0.0843,-0.0854,-0.0828,-0.0769,-0.0707,-0.0572,-0.0485,-0.0248,-0.0336,-0.0013,0.0029,0.0082,0.0311,0.0314,0.0394,0.0393,0.0392,0.0284,0,0,0,0,0]}]]